| time (UTC) | temp C | wind direction | speed KPH | gust KPH | rain 1hr cm | rain 24hr cm | rain mn cm | humidity % | barometer mb |
| 20260831080030 | 7 | 169 | 4.8 | 8.0 | 0.00 | 0.00 | 0.00 | 84 | 1018.6 |
| 20260831074532 | 8 | 158 | 0.0 | 4.8 | 0.00 | 0.00 | 0.00 | 82 | 1018.6 |
| 20260831073032 | 9 | 157 | 0.0 | 4.8 | 0.00 | 0.00 | 0.00 | 80 | 1018.6 |
| 20260831070026 | 10 | 150 | 4.8 | 8.0 | 0.00 | 0.00 | 0.00 | 76 | 1018.8 |
| 20260831064532 | 11 | 148 | 6.4 | 11.3 | 0.00 | 0.00 | 0.00 | 76 | 1018.8 |
| 20260831063030 | 10 | 144 | 6.4 | 11.3 | 0.00 | 0.00 | 0.00 | 77 | 1018.9 |
| 20260831061532 | 10 | 145 | 6.4 | 9.7 | 0.00 | 0.00 | 0.00 | 79 | 1018.9 |
| 20260831060032 | 10 | 160 | 4.8 | 9.7 | 0.00 | 0.00 | 0.00 | 80 | 1019.0 |
| 20260831054531 | 10 | 180 | 1.6 | 4.8 | 0.00 | 0.00 | 0.00 | 76 | 1019.1 |
| 20260831053031 | 11 | 171 | 1.6 | 4.8 | 0.00 | 0.00 | 0.00 | 73 | 1019.3 |
| 20260831051533 | 12 | 177 | 3.2 | 8.0 | 0.00 | 0.00 | 0.00 | 72 | 1019.4 |
| 20260831050031 | 12 | 165 | 4.8 | 11.3 | 0.00 | 0.00 | 0.00 | 72 | 1019.4 |
| 20260831044529 | 12 | 168 | 4.8 | 9.7 | 0.00 | 0.00 | 0.00 | 74 | 1019.5 |
| 20260831043031 | 11 | 169 | 3.2 | 8.0 | 0.00 | 0.00 | 0.00 | 76 | 1019.5 |
| 20260831041532 | 12 | 197 | 3.2 | 4.8 | 0.00 | 0.00 | 0.00 | 74 | 1019.5 |
| 20260831040028 | 12 | 208 | 3.2 | 4.8 | 0.00 | 0.00 | 0.00 | 71 | 1019.5 |
| 20260831034528 | 13 | 189 | 3.2 | 4.8 | 0.00 | 0.00 | 0.00 | 67 | 1019.4 |
| 20260831033030 | 15 | 134 | 1.6 | 4.8 | 0.00 | 0.00 | 0.00 | 62 | 1019.4 |
| 20260831031531 | 16 | 65 | 1.6 | 9.7 | 0.00 | 0.00 | 0.00 | 59 | 1019.3 |
| 20260831030029 | 16 | 348 | 1.6 | 11.3 | 0.00 | 0.00 | 0.00 | 58 | 1019.3 |
| 20260831023105 | 18 | 284 | 4.8 | 12.9 | 0.00 | 0.00 | 0.00 | 51 | 1019.2 |
| 20260831021604 | 18 | 271 | 6.4 | 16.1 | 0.00 | 0.00 | 0.00 | 50 | 1019.2 |
| 20260831004530 | 21 | 267 | 6.4 | 17.7 | 0.00 | 0.00 | 0.00 | 44 | 1019.3 |
| 20260831001604 | 21 | 323 | 4.8 | 14.5 | 0.00 | 0.00 | 0.00 | 44 | 1019.2 |
| 20260831000032 | 21 | 27 | 8.0 | 17.7 | 0.00 | 0.00 | 0.00 | 44 | 1019.2 |
| 20260830234603 | 21 | 350 | 8.0 | 20.9 | 0.00 | 0.00 | 0.00 | 46 | 1019.3 |
| 20260830233030 | 21 | 1 | 9.7 | 19.3 | 0.00 | 0.00 | 0.00 | 45 | 1019.4 |
| 20260830231605 | 22 | 353 | 9.7 | 17.7 | 0.00 | 0.00 | 0.00 | 43 | 1019.5 |
| 20260830230029 | 22 | 311 | 9.7 | 17.7 | 0.00 | 0.00 | 0.00 | 40 | 1019.6 |
| 20260830224607 | 22 | 300 | 8.0 | 17.7 | 0.00 | 0.00 | 0.00 | 41 | 1019.7 |
| 20260830223103 | 22 | 296 | 6.4 | 19.3 | 0.00 | 0.00 | 0.00 | 40 | 1020.0 |
| 20260830221530 | 22 | 308 | 8.0 | 16.1 | 0.00 | 0.00 | 0.00 | 42 | 1020.3 |
| 20260830220032 | 22 | 296 | 8.0 | 20.9 | 0.00 | 0.00 | 0.00 | 42 | 1020.5 |
| 20260830214636 | 21 | 301 | 9.7 | 20.9 | 0.00 | 0.00 | 0.00 | 45 | 1020.6 |
| 20260830213030 | 21 | 348 | 8.0 | 16.1 | 0.00 | 0.00 | 0.00 | 46 | 1020.8 |
| 20260830211526 | 21 | 10 | 8.0 | 17.7 | 0.00 | 0.00 | 0.00 | 47 | 1020.8 |
| 20260830210147 | 21 | 12 | 6.4 | 17.7 | 0.00 | 0.00 | 0.00 | 48 | 1020.8 |
| 20260830204532 | 21 | 21 | 8.0 | 16.1 | 0.00 | 0.00 | 0.00 | 49 | 1021.0 |
| 20260830201531 | 20 | 7 | 6.4 | 12.9 | 0.00 | 0.00 | 0.00 | 48 | 1021.3 |
| 20260830200031 | 21 | 348 | 3.2 | 14.5 | 0.00 | 0.00 | 0.00 | 46 | 1021.3 |
| 20260830194529 | 21 | 268 | 4.8 | 12.9 | 0.00 | 0.00 | 0.00 | 47 | 1021.5 |
| 20260830193107 | 20 | 80 | 4.8 | 11.3 | 0.00 | 0.00 | 0.00 | 48 | 1021.6 |
| 20260830191529 | 20 | 355 | 6.4 | 14.5 | 0.00 | 0.00 | 0.00 | 47 | 1021.7 |
| 20260830190031 | 19 | 20 | 4.8 | 12.9 | 0.00 | 0.00 | 0.00 | 48 | 1021.9 |
| 20260830181606 | 17 | 46 | 4.8 | 12.9 | 0.00 | 0.00 | 0.00 | 53 | 1022.3 |
| 20260830174648 | 16 | 343 | 1.6 | 8.0 | 0.00 | 0.00 | 0.00 | 55 | 1022.4 |
| 20260830173030 | 16 | 343 | 3.2 | 11.3 | 0.00 | 0.00 | 0.00 | 56 | 1022.4 |
| 20260830171529 | 15 | 340 | 0.0 | 4.8 | 0.00 | 0.00 | 0.00 | 58 | 1022.5 |
| 20260830164605 | 14 | 134 | 0.0 | 4.8 | 0.00 | 0.00 | 0.00 | 66 | 1022.9 |
| 20260830163105 | 13 | 109 | 1.6 | 8.0 | 0.00 | 0.00 | 0.00 | 69 | 1023.0 |
| 20260830161542 | 12 | 177 | 1.6 | 4.8 | 0.00 | 0.00 | 0.00 | 74 | 1023.2 |
| 20260830160105 | 11 | 163 | 1.6 | 4.8 | 0.00 | 0.00 | 0.00 | 80 | 1023.3 |
| 20260830154530 | 10 | 175 | 1.6 | 4.8 | 0.00 | 0.00 | 0.00 | 88 | 1023.3 |
| 20260830153029 | 8 | 135 | 0.0 | 6.4 | 0.00 | 0.00 | 0.00 | 91 | 1023.4 |
| 20260830151532 | 7 | 135 | 1.6 | 3.2 | 0.00 | 0.00 | 0.00 | 93 | 1023.3 |
| 20260830150030 | 6 | 185 | 0.0 | 4.8 | 0.00 | 0.00 | 0.00 | 93 | 1023.2 |
| 20260830144528 | 5 | 171 | 3.2 | 8.0 | 0.00 | 0.00 | 0.00 | 92 | 1023.1 |
| 20260830143032 | 4 | 146 | 3.2 | 6.4 | 0.00 | 0.00 | 0.00 | 91 | 1022.9 |
| 20260830141531 | 4 | 135 | 3.2 | 4.8 | 0.00 | 0.00 | 0.00 | 89 | 1022.8 |
| 20260830140034 | 5 | 150 | 1.6 | 3.2 | 0.00 | 0.00 | 0.00 | 88 | 1022.7 |
| 20260830134604 | 5 | 163 | 0.0 | 4.8 | 0.00 | 0.00 | 0.00 | 87 | 1022.7 |
| 20260830133105 | 6 | 175 | 4.8 | 11.3 | 0.00 | 0.00 | 0.00 | 88 | 1022.5 |
| 20260830131528 | 5 | 167 | 6.4 | 12.9 | 0.00 | 0.00 | 0.00 | 88 | 1022.3 |
| 20260830130028 | 5 | 179 | 6.4 | 11.3 | 0.00 | 0.00 | 0.00 | 86 | 1022.4 |
| 20260830123031 | 6 | 187 | 6.4 | 14.5 | 0.00 | 0.00 | 0.00 | 85 | 1022.5 |
| 20260830120109 | 6 | 156 | 6.4 | 11.3 | 0.00 | 0.00 | 0.00 | 85 | 1022.6 |
| 20260830114606 | 6 | 158 | 6.4 | 14.5 | 0.00 | 0.00 | 0.00 | 85 | 1022.6 |
| 20260830113032 | 7 | 163 | 4.8 | 11.3 | 0.00 | 0.00 | 0.00 | 85 | 1022.6 |
| 20260830111530 | 7 | 160 | 6.4 | 12.9 | 0.00 | 0.00 | 0.00 | 85 | 1022.7 |
| 20260830104535 | 7 | 160 | 6.4 | 12.9 | 0.00 | 0.00 | 0.00 | 86 | 1022.6 |
| 20260830103030 | 7 | 162 | 6.4 | 11.3 | 0.00 | 0.00 | 0.00 | 86 | 1022.6 |
| 20260830101531 | 7 | 160 | 6.4 | 9.7 | 0.00 | 0.00 | 0.00 | 87 | 1022.5 |
| 20260830100032 | 7 | 165 | 6.4 | 9.7 | 0.00 | 0.00 | 0.00 | 87 | 1022.6 |
| 20260830094533 | 7 | 164 | 6.4 | 12.9 | 0.00 | 0.00 | 0.00 | 87 | 1022.5 |
| 20260830093032 | 7 | 167 | 6.4 | 11.3 | 0.00 | 0.00 | 0.00 | 87 | 1022.5 |
| 20260830091644 | 6 | 177 | 8.0 | 12.9 | 0.00 | 0.00 | 0.00 | 89 | 1022.6 |
| 20260830090033 | 6 | 169 | 4.8 | 9.7 | 0.00 | 0.00 | 0.00 | 89 | 1022.6 |
| 20260830083029 | 7 | 175 | 4.8 | 9.7 | 0.00 | 0.00 | 0.00 | 88 | 1022.7 |
| 20260830081530 | 7 | 165 | 6.4 | 12.9 | 0.00 | 0.00 | 0.00 | 91 | 1022.6 |